Time,TemperatureF,DewpointF,PressureIn,WindDirection,WindDirectionDegrees,WindSpeedMPH,WindSpeedGustMPH,Humidity,HourlyPrecipIn,Conditions,Clouds,dailyrainin,SoftwareType,DateUTC
2013-03-31 00:01:00,57.0,54.0,30.02,SW,220,5.0,-999.0,87,-99.99,,,-99.99,,2013-03-31 07:01:00,
2013-03-31 00:11:00,57.0,54.0,30.02,SSW,200,1.0,-999.0,87,-99.99,,,-99.99,,2013-03-31 07:11:00,
2013-03-31 00:21:00,57.0,55.0,30.03,East,90,5.0,-999.0,93,-99.99,,,-99.99,,2013-03-31 07:21:00,
2013-03-31 00:31:00,57.0,54.0,30.03,SW,220,3.0,-999.0,87,-99.99,,,-99.99,,2013-03-31 07:31:00,
2013-03-31 00:42:00,57.0,54.0,30.02,SW,220,6.0,-999.0,87,-99.99,,,-99.99,,2013-03-31 07:42:00,
2013-03-31 00:52:00,57.0,55.0,30.02,South,190,5.0,-999.0,93,-99.99,,,-99.99,,2013-03-31 07:52:00,
2013-03-31 01:01:00,57.0,55.0,30.02,South,190,5.0,-999.0,93,-99.99,,,-99.99,,2013-03-31 08:01:00,
2013-03-31 01:11:00,57.0,54.0,30.03,SW,230,7.0,-999.0,87,-99.99,,,-99.99,,2013-03-31 08:11:00,
2013-03-31 01:21:00,57.0,54.0,30.02,WSW,250,5.0,-999.0,87,-99.99,,,-99.99,,2013-03-31 08:21:00,
2013-03-31 01:31:00,57.0,54.0,30.03,WSW,240,6.0,-999.0,87,-99.99,,,-99.99,,2013-03-31 08:31:00,
2013-03-31 01:41:00,57.0,54.0,30.03,SSW,200,5.0,-999.0,87,-99.99,,,-99.99,,2013-03-31 08:41:00,
2013-03-31 01:52:00,57.0,54.0,30.03,SSW,200,2.0,-999.0,87,-99.99,,,-99.99,,2013-03-31 08:52:00,
2013-03-31 02:01:00,57.0,54.0,30.03,SSW,200,2.0,-999.0,87,-99.99,,,-99.99,,2013-03-31 09:01:00,
2013-03-31 02:11:00,57.0,55.0,30.02,East,80,1.0,-999.0,93,-99.99,,,-99.99,,2013-03-31 09:11:00,
2013-03-31 02:21:00,55.0,55.0,30.03,SSE,150,5.0,-999.0,100,-99.99,,,-99.99,,2013-03-31 09:21:00,
2013-03-31 02:32:00,55.0,55.0,30.03,SE,140,5.0,-999.0,100,-99.99,,,-99.99,,2013-03-31 09:32:00,
2013-03-31 02:42:00,55.0,55.0,30.04,SE,140,3.0,-999.0,100,-99.99,,,-99.99,,2013-03-31 09:42:00,
2013-03-31 02:53:00,55.0,55.0,30.05,ESE,110,5.0,-999.0,100,-99.99,,,-99.99,,2013-03-31 09:53:00,
2013-03-31 03:02:00,55.0,55.0,30.05,ESE,110,5.0,-999.0,100,-99.99,,,-99.99,,2013-03-31 10:02:00,
2013-03-31 03:12:00,57.0,55.0,30.05,SE,130,6.0,-999.0,93,-99.99,,,-99.99,,2013-03-31 10:12:00,
2013-03-31 03:22:00,57.0,55.0,30.05,SE,130,7.0,-999.0,93,-99.99,,,-99.99,,2013-03-31 10:22:00,
2013-03-31 03:32:00,55.0,55.0,30.05,ESE,120,7.0,-999.0,100,-99.99,,,-99.99,,2013-03-31 10:32:00,
2013-03-31 03:41:00,55.0,55.0,30.05,East,100,2.0,-999.0,100,-99.99,,,-99.99,,2013-03-31 10:41:00,
2013-03-31 03:53:00,55.0,55.0,30.05,ESE,120,2.0,-999.0,100,-99.99,,,-99.99,,2013-03-31 10:53:00,
2013-03-31 04:02:00,55.0,55.0,30.05,ESE,120,2.0,-999.0,100,-99.99,,,-99.99,,2013-03-31 11:02:00,
2013-03-31 04:11:00,55.0,55.0,30.06,ESE,110,5.0,-999.0,100,-99.99,,,-99.99,,2013-03-31 11:11:00,
2013-03-31 04:21:00,55.0,55.0,30.05,East,100,3.0,-999.0,100,-99.99,,,-99.99,,2013-03-31 11:21:00,
2013-03-31 04:32:00,55.0,55.0,30.05,ESE,120,5.0,-999.0,100,-99.99,,,-99.99,,2013-03-31 11:32:00,
2013-03-31 04:42:00,55.0,55.0,30.05,ESE,120,6.0,-999.0,100,-99.99,,,-99.99,,2013-03-31 11:42:00,
2013-03-31 04:52:00,55.0,55.0,30.05,ESE,110,3.0,-999.0,100,-99.99,,,-99.99,,2013-03-31 11:52:00,
2013-03-31 05:02:00,55.0,55.0,30.05,ESE,110,3.0,-999.0,100,-99.99,,,-99.99,,2013-03-31 12:02:00,
2013-03-31 05:11:00,55.0,55.0,30.06,ESE,120,6.0,-999.0,100,-99.99,,,-99.99,,2013-03-31 12:11:00,
2013-03-31 05:21:00,55.0,55.0,30.06,ESE,110,3.0,-999.0,100,-99.99,,,-99.99,,2013-03-31 12:21:00,
2013-03-31 05:32:00,55.0,55.0,30.05,ESE,120,2.0,-999.0,100,-99.99,,,-99.99,,2013-03-31 12:32:00,
2013-03-31 05:41:00,55.0,55.0,30.06,North,0,0.0,-999.0,100,-99.99,,,-99.99,,2013-03-31 12:41:00,
2013-03-31 05:52:00,55.0,55.0,30.06,North,0,0.0,-999.0,100,-99.99,,,-99.99,,2013-03-31 12:52:00,
2013-03-31 06:01:00,55.0,55.0,30.06,North,0,0.0,-999.0,100,-99.99,,,-99.99,,2013-03-31 13:01:00,
2013-03-31 06:21:00,55.0,54.0,30.07,SSE,160,6.0,-999.0,93,-99.99,,,-99.99,,2013-03-31 13:21:00,
2013-03-31 06:31:00,55.0,54.0,30.07,SSE,150,5.0,-999.0,93,-99.99,,,-99.99,,2013-03-31 13:31:00,
2013-03-31 06:41:00,55.0,54.0,30.07,SSE,150,6.0,-999.0,93,-99.99,,,-99.99,,2013-03-31 13:41:00,
2013-03-31 06:52:00,55.0,54.0,30.07,SSE,160,7.0,-999.0,93,-99.99,,,-99.99,,2013-03-31 13:52:00,
2013-03-31 07:01:00,55.0,54.0,30.07,SSE,160,7.0,-999.0,93,-99.99,,,-99.99,,2013-03-31 14:01:00,
2013-03-31 07:11:00,55.0,54.0,30.07,SSE,160,7.0,-999.0,93,-99.99,,,-99.99,,2013-03-31 14:11:00,
2013-03-31 07:21:00,55.0,54.0,30.08,South,190,5.0,-999.0,93,-99.99,,,-99.99,,2013-03-31 14:21:00,
2013-03-31 07:31:00,55.0,54.0,30.08,South,180,7.0,-999.0,93,-99.99,,,-99.99,,2013-03-31 14:31:00,
2013-03-31 07:42:00,55.0,54.0,30.08,South,180,7.0,-999.0,93,-99.99,,,-99.99,,2013-03-31 14:42:00,
2013-03-31 07:52:00,55.0,54.0,30.08,South,190,8.0,-999.0,93,-99.99,,,-99.99,,2013-03-31 14:52:00,
2013-03-31 08:01:00,55.0,54.0,30.08,South,190,8.0,-999.0,93,-99.99,,,-99.99,,2013-03-31 15:01:00,
2013-03-31 08:11:00,55.0,55.0,30.09,South,190,8.0,-999.0,100,-99.99,,,-99.99,,2013-03-31 15:11:00,
2013-03-31 08:21:00,55.0,55.0,30.10,South,190,6.0,-999.0,100,-99.99,,,-99.99,,2013-03-31 15:21:00,
2013-03-31 08:32:00,55.0,55.0,30.10,South,170,8.0,-999.0,100,-99.99,,,-99.99,,2013-03-31 15:32:00,
2013-03-31 08:42:00,57.0,55.0,30.10,South,170,12.0,-999.0,93,-99.99,,,-99.99,,2013-03-31 15:42:00,
2013-03-31 08:53:00,57.0,55.0,30.10,South,170,8.0,-999.0,93,-99.99,,,-99.99,,2013-03-31 15:53:00,
2013-03-31 09:02:00,57.0,55.0,30.10,South,170,8.0,-999.0,93,-99.99,,,-99.99,,2013-03-31 16:02:00,
2013-03-31 09:12:00,59.0,55.0,30.09,SSE,160,12.0,-999.0,87,-99.99,,,-99.99,,2013-03-31 16:12:00,
2013-03-31 09:22:00,59.0,55.0,30.09,SSE,150,7.0,-999.0,87,-99.99,,,-99.99,,2013-03-31 16:22:00,
2013-03-31 09:32:00,59.0,55.0,30.09,SSE,150,9.0,-999.0,87,-99.99,,,-99.99,,2013-03-31 16:32:00,
2013-03-31 09:42:00,59.0,55.0,30.10,SE,140,8.0,-999.0,87,-99.99,,,-99.99,,2013-03-31 16:42:00,
2013-03-31 09:53:00,59.0,55.0,30.10,SSE,150,10.0,-999.0,87,-99.99,,,-99.99,,2013-03-31 16:53:00,
2013-03-31 10:02:00,59.0,55.0,30.10,SSE,150,10.0,-999.0,87,-99.99,,,-99.99,,2013-03-31 17:02:00,
2013-03-31 10:12:00,59.0,55.0,30.11,SSE,150,12.0,-999.0,87,-99.99,,,-99.99,,2013-03-31 17:12:00,
2013-03-31 10:21:00,59.0,55.0,30.11,SE,140,10.0,-999.0,87,-99.99,,,-99.99,,2013-03-31 17:21:00,
2013-03-31 10:31:00,59.0,55.0,30.11,SSE,150,8.0,-999.0,87,-99.99,,,-99.99,,2013-03-31 17:31:00,
2013-03-31 10:42:00,61.0,55.0,30.11,ESE,120,7.0,-999.0,82,-99.99,,,-99.99,,2013-03-31 17:42:00,
2013-03-31 10:52:00,63.0,55.0,30.11,SE,140,7.0,-999.0,77,-99.99,,,-99.99,,2013-03-31 17:52:00,
2013-03-31 11:01:00,63.0,55.0,30.11,SE,140,7.0,-999.0,77,-99.99,,,-99.99,,2013-03-31 18:01:00,
2013-03-31 11:12:00,63.0,55.0,30.11,SSE,160,12.0,-999.0,77,-99.99,,,-99.99,,2013-03-31 18:12:00,
2013-03-31 11:21:00,64.0,54.0,30.11,SSE,150,8.0,-999.0,67,-99.99,,,-99.99,,2013-03-31 18:21:00,
2013-03-31 11:31:00,64.0,54.0,30.10,SSE,160,7.0,-999.0,67,-99.99,,,-99.99,,2013-03-31 18:31:00,
2013-03-31 11:41:00,64.0,54.0,30.10,SSE,160,8.0,-999.0,67,-99.99,,,-99.99,,2013-03-31 18:41:00,
2013-03-31 11:52:00,63.0,54.0,30.10,SSW,210,6.0,-999.0,72,-99.99,,,-99.99,,2013-03-31 18:52:00,
2013-03-31 12:11:00,64.0,54.0,30.10,ESE,120,12.0,-999.0,67,-99.99,,,-99.99,,2013-03-31 19:11:00,
2013-03-31 12:21:00,64.0,54.0,30.10,SSE,150,5.0,-999.0,67,-99.99,,,-99.99,,2013-03-31 19:21:00,
2013-03-31 12:32:00,64.0,52.0,30.09,SE,140,10.0,-999.0,63,-99.99,,,-99.99,,2013-03-31 19:32:00,
2013-03-31 12:42:00,66.0,52.0,30.09,ESE,120,6.0,-999.0,59,-99.99,,,-99.99,,2013-03-31 19:42:00,
2013-03-31 12:53:00,66.0,54.0,30.09,SE,140,8.0,-999.0,63,-99.99,,,-99.99,,2013-03-31 19:53:00,
2013-03-31 13:02:00,66.0,54.0,30.09,SE,140,8.0,-999.0,63,-99.99,,,-99.99,,2013-03-31 20:02:00,
2013-03-31 13:11:00,68.0,52.0,30.08,SE,140,9.0,-999.0,56,-99.99,,,-99.99,,2013-03-31 20:11:00,
2013-03-31 13:21:00,66.0,52.0,30.08,SSE,150,12.0,-999.0,59,-99.99,,,-99.99,,2013-03-31 20:21:00,
2013-03-31 13:32:00,66.0,52.0,30.07,SSE,150,12.0,-999.0,59,-99.99,,,-99.99,,2013-03-31 20:32:00,
2013-03-31 13:42:00,68.0,52.0,30.07,SSE,150,9.0,-999.0,56,-99.99,,,-99.99,,2013-03-31 20:42:00,
2013-03-31 13:52:00,68.0,52.0,30.06,SE,130,9.0,-999.0,56,-99.99,,,-99.99,,2013-03-31 20:52:00,
2013-03-31 14:01:00,68.0,52.0,30.06,SE,130,9.0,-999.0,56,-99.99,,,-99.99,,2013-03-31 21:01:00,
2013-03-31 14:11:00,70.0,50.0,30.05,SSE,160,7.0,-999.0,49,-99.99,,,-99.99,,2013-03-31 21:11:00,
2013-03-31 14:21:00,68.0,48.0,30.04,SSE,150,9.0,-999.0,49,-99.99,,,-99.99,,2013-03-31 21:21:00,
2013-03-31 14:33:00,68.0,48.0,30.04,SSE,160,7.0,-999.0,49,-99.99,,,-99.99,,2013-03-31 21:33:00,
2013-03-31 14:42:00,68.0,48.0,30.04,SE,130,6.0,-999.0,49,-99.99,,,-99.99,,2013-03-31 21:42:00,
2013-03-31 14:53:00,68.0,48.0,30.03,SSE,150,8.0,-999.0,49,-99.99,,,-99.99,,2013-03-31 21:53:00,
2013-03-31 15:02:00,68.0,48.0,30.03,SSE,150,8.0,-999.0,49,-99.99,,,-99.99,,2013-03-31 22:02:00,
2013-03-31 15:12:00,70.0,48.0,30.02,SE,140,7.0,-999.0,46,-99.99,,,-99.99,,2013-03-31 22:12:00,
2013-03-31 15:22:00,68.0,48.0,30.02,SSE,160,8.0,-999.0,49,-99.99,,,-99.99,,2013-03-31 22:22:00,
2013-03-31 15:32:00,66.0,48.0,30.02,ESE,110,6.0,-999.0,52,-99.99,,,-99.99,,2013-03-31 22:32:00,
2013-03-31 15:42:00,66.0,48.0,30.02,SSE,160,6.0,-999.0,52,-99.99,,,-99.99,,2013-03-31 22:42:00,
2013-03-31 15:53:00,66.0,48.0,30.02,SSE,150,3.0,-999.0,52,-99.99,,,-99.99,,2013-03-31 22:53:00,
2013-03-31 16:02:00,66.0,48.0,30.02,SSE,150,3.0,-999.0,52,-99.99,,,-99.99,,2013-03-31 23:02:00,
2013-03-31 16:12:00,66.0,48.0,30.01,ENE,60,3.0,-999.0,52,-99.99,,,-99.99,,2013-03-31 23:12:00,
2013-03-31 16:21:00,64.0,52.0,30.01,WSW,250,5.0,-999.0,63,-99.99,,,-99.99,,2013-03-31 23:21:00,
2013-03-31 16:31:00,63.0,54.0,30.01,NW,310,3.0,-999.0,72,-99.99,,,-99.99,,2013-03-31 23:31:00,
2013-03-31 16:41:00,63.0,55.0,30.01,NW,320,3.0,-999.0,77,-99.99,,,-99.99,,2013-03-31 23:41:00,
2013-03-31 16:53:00,61.0,55.0,30.03,SSW,210,17.0,22.0,82,-99.99,,,-99.99,,2013-03-31 23:53:00,
2013-03-31 17:01:00,61.0,55.0,30.03,SSW,210,17.0,22.0,82,-99.99,,,-99.99,,2013-04-01 00:01:00,
2013-03-31 17:11:00,54.0,48.0,30.05,SW,230,14.0,21.0,81,-99.99,,,-99.99,,2013-04-01 00:11:00,
2013-03-31 17:21:00,55.0,52.0,30.05,WSW,250,5.0,-999.0,87,-99.99,,,-99.99,,2013-04-01 00:21:00,
2013-03-31 17:31:00,55.0,52.0,30.05,West,260,5.0,-999.0,87,-99.99,,,-99.99,,2013-04-01 00:31:00,
2013-03-31 17:42:00,55.0,52.0,30.05,West,260,9.0,-999.0,87,-99.99,,,-99.99,,2013-04-01 00:42:00,
2013-03-31 17:52:00,55.0,52.0,30.04,West,280,10.0,-999.0,87,-99.99,,,-99.99,,2013-04-01 00:52:00,
2013-03-31 18:01:00,55.0,52.0,30.04,West,280,10.0,-999.0,87,-99.99,,,-99.99,,2013-04-01 01:01:00,
2013-03-31 18:11:00,54.0,52.0,30.03,WNW,300,10.0,-999.0,93,-99.99,,,-99.99,,2013-04-01 01:11:00,
2013-03-31 18:21:00,55.0,54.0,30.02,West,280,8.0,-999.0,93,-99.99,,,-99.99,,2013-04-01 01:21:00,
2013-03-31 18:31:00,55.0,54.0,30.02,West,280,8.0,-999.0,93,-99.99,,,-99.99,,2013-04-01 01:31:00,
2013-03-31 18:42:00,55.0,54.0,30.02,West,280,8.0,-999.0,93,-99.99,,,-99.99,,2013-04-01 01:42:00,
2013-03-31 18:52:00,55.0,54.0,30.03,West,260,6.0,-999.0,93,-99.99,,,-99.99,,2013-04-01 01:52:00,
2013-03-31 19:01:00,55.0,54.0,30.03,West,260,6.0,-999.0,93,-99.99,,,-99.99,,2013-04-01 02:01:00,
2013-03-31 19:11:00,55.0,54.0,30.04,West,270,6.0,-999.0,93,-99.99,,,-99.99,,2013-04-01 02:11:00,
2013-03-31 19:21:00,55.0,54.0,30.04,West,270,6.0,-999.0,93,-99.99,,,-99.99,,2013-04-01 02:21:00,
2013-03-31 19:32:00,55.0,54.0,30.03,WSW,250,5.0,-999.0,93,-99.99,,,-99.99,,2013-04-01 02:32:00,
2013-03-31 19:42:00,55.0,54.0,30.03,West,260,3.0,-999.0,93,-99.99,,,-99.99,,2013-04-01 02:42:00,
2013-03-31 19:52:00,55.0,54.0,30.03,SW,230,3.0,-999.0,93,-99.99,,,-99.99,,2013-04-01 02:52:00,
2013-03-31 20:02:00,55.0,54.0,30.03,SW,230,3.0,-999.0,93,-99.99,,,-99.99,,2013-04-01 03:02:00,
2013-03-31 20:11:00,55.0,54.0,30.03,SSW,210,5.0,-999.0,93,-99.99,,,-99.99,,2013-04-01 03:11:00,
2013-03-31 20:21:00,55.0,54.0,30.04,SW,230,1.0,-999.0,93,-99.99,,,-99.99,,2013-04-01 03:21:00,
2013-03-31 20:32:00,54.0,54.0,30.04,SW,220,3.0,-999.0,100,-99.99,,,-99.99,,2013-04-01 03:32:00,
2013-03-31 20:42:00,54.0,54.0,30.04,SSW,210,3.0,-999.0,100,-99.99,,,-99.99,,2013-04-01 03:42:00,
2013-03-31 20:53:00,54.0,54.0,30.05,SSW,200,2.0,-999.0,100,-99.99,,,-99.99,,2013-04-01 03:53:00,
2013-03-31 21:02:00,54.0,54.0,30.05,SSW,200,2.0,-999.0,100,-99.99,,,-99.99,,2013-04-01 04:02:00,
2013-03-31 21:12:00,55.0,54.0,30.05,South,180,5.0,-999.0,93,-99.99,,,-99.99,,2013-04-01 04:12:00,
2013-03-31 21:22:00,55.0,54.0,30.06,South,180,5.0,-999.0,93,-99.99,,,-99.99,,2013-04-01 04:22:00,
2013-03-31 21:32:00,55.0,54.0,30.06,SSE,160,3.0,-999.0,93,-99.99,,,-99.99,,2013-04-01 04:32:00,
2013-03-31 21:42:00,55.0,54.0,30.06,South,170,5.0,-999.0,93,-99.99,,,-99.99,,2013-04-01 04:42:00,
2013-03-31 21:53:00,55.0,54.0,30.07,South,170,3.0,-999.0,93,-99.99,,,-99.99,,2013-04-01 04:53:00,
2013-03-31 22:02:00,55.0,54.0,30.07,South,170,3.0,-999.0,93,-99.99,,,-99.99,,2013-04-01 05:02:00,
2013-03-31 22:11:00,55.0,54.0,30.08,ENE,70,3.0,-999.0,93,-99.99,,,-99.99,,2013-04-01 05:11:00,
2013-03-31 22:21:00,55.0,54.0,30.08,ENE,60,5.0,-999.0,93,-99.99,,,-99.99,,2013-04-01 05:21:00,
2013-03-31 22:31:00,55.0,54.0,30.08,NNE,30,3.0,-999.0,93,-99.99,,,-99.99,,2013-04-01 05:31:00,
2013-03-31 22:42:00,55.0,54.0,30.08,ENE,60,3.0,-999.0,93,-99.99,,,-99.99,,2013-04-01 05:42:00,
2013-03-31 22:52:00,55.0,54.0,30.08,NE,50,2.0,-999.0,93,-99.99,,,-99.99,,2013-04-01 05:52:00,
2013-03-31 23:01:00,55.0,54.0,30.08,NE,50,2.0,-999.0,93,-99.99,,,-99.99,,2013-04-01 06:01:00,
2013-03-31 23:11:00,54.0,54.0,30.07,North,0,0.0,-999.0,100,-99.99,,,-99.99,,2013-04-01 06:11:00,
2013-03-31 23:22:00,54.0,54.0,30.07,North,0,0.0,-999.0,100,-99.99,,,-99.99,,2013-04-01 06:22:00,
2013-03-31 23:32:00,54.0,54.0,30.07,North,0,0.0,-999.0,100,-99.99,,,-99.99,,2013-04-01 06:32:00,
2013-03-31 23:42:00,55.0,54.0,30.07,North,0,0.0,-999.0,93,-99.99,,,-99.99,,2013-04-01 06:42:00,
2013-03-31 23:52:00,54.0,54.0,30.07,ESE,120,2.0,-999.0,100,-99.99,,,-99.99,,2013-04-01 06:52:00,